Flag for Faroe Islands Weather past 2 weeks in Klaksvík, Faroe Islands, Faroe Islands

Now
32 °F

Fog.


Feels Like: 21 °F
Forecast: 30 / 32 °F
Wind: 17 mph from Northwest

Location: Thorshavn

Current Time: Feb 1, 2015 at 1:58:27 PM

Latest Report: Feb 1, 2015 at 1:00 PM


Visibility: 16 mi

Pressure: 29.70 "Hg

Humidity: 66%

Dew point: 22 °F

Location of KlaksvíkLocation

Historic Weather in Klaksvík — Graph

°F

Klaksvík temperature yesterday

Maximum temperature yesterday: 37 °F (at 1:00 AM)
Minimum temperature yesterday: 31 °F (at 10:00 PM)
Average temperature yesterday: 34 °F

Past Weeks' High & Low Weather Summary

 TemperatureHumidityPressure
High50 °F (Jan 25, 11:00 AM)97% (Jan 27, 7:00 PM)30.19 "Hg (Jan 27, 7:00 PM)
Low26 °F (Jan 19, 8:00 AM)57% (Jan 31, 2:00 AM)28.61 "Hg (Jan 29, 5:00 AM)
Average38 °F77%29.48 "Hg
* Reported Jan 17 12:00 Noon — Feb 1 12:00 Noon, Klaksvík, Weather by CustomWeather, © 2014

Note: Actual official high and low records may vary slightly from our data, if they occured in-between our weather recording intervals... More about our weather records

Advertising

Klaksvík weather history for previous 24 hours

 ConditionsComfort  
Time TempWeatherWind HumidityBarometerVisibility
12:00 PM
Feb 1
31 °FHeavy rain. Overcast.15 mph72%29.71 "Hg6 mi
11:00 AM30 °FLight snow. Ice fog.17 mph78%29.71 "Hg1 mi
10:00 AM31 °FOvercast.14 mph60%29.71 "Hg28 mi
9:00 AM31 °FDrizzle. Overcast.10 mph65%29.72 "Hg25 mi
8:00 AM30 °FSprinkles. Overcast.13 mph73%29.72 "Hg15 mi
7:00 AM30 °FHeavy rain. Overcast.15 mph75%29.72 "Hg5 mi
6:00 AM30 °FSnow flurries. Passing clouds.15 mph74%29.72 "Hg31 mi
5:00 AM31 °FPassing clouds.16 mph61%29.72 "Hg10 mi
4:00 AM31 °FHeavy rain. Overcast.22 mph59%29.72 "Hg25 mi
3:00 AM31 °FOvercast.20 mph63%29.72 "Hg22 mi
2:00 AM31 °FOvercast.22 mph60%29.72 "Hg28 mi
1:00 AM31 °FDrizzle. Overcast.21 mph64%29.73 "Hg18 mi
12:00 AM32 °FDrizzle. Overcast.22 mph64%29.72 "Hg12 mi
11:00 PM
Jan 31
32 °FSprinkles. Overcast.18 mph61%29.73 "Hg22 mi
10:00 PM31 °FHeavy rain. Overcast.22 mph67%29.71 "Hg19 mi
9:00 PM31 °FDrizzle. Overcast.22 mph67%29.72 "Hg12 mi
8:00 PM32 °FDrizzle. Overcast.23 mph61%29.71 "Hg22 mi
7:00 PM32 °FOvercast.23 mph63%29.70 "Hg17 mi
6:00 PM33 °FOvercast.26 mph64%29.68 "Hg13 mi
5:00 PM33 °FSprinkles. Overcast.23 mph63%29.65 "Hg14 mi
4:00 PM34 °FDrizzle. Overcast.28 mph64%29.62 "Hg11 mi
3:00 PM34 °FDrizzle. Overcast.25 mph65%29.59 "Hg9 mi
2:00 PM34 °FLight rain. Overcast.29 mph68%29.56 "Hg3 mi
1:00 PM35 °FOvercast.26 mph58%29.54 "Hg16 mi
Weather by CustomWeather, © 2014

See weather overviewHow to use our weather pages